• In United Kingdom
  • List of Countries
  • For 7 days
  • Water Temperature
  • Satellite Maps
  • Weather Map
  • Weather Widgets
  • user-avatar
    Login

    Hourly Weather Yerevan

    Today, 20 April, Friday

    Time Temperature Precipitation Wind Pressure Humidity
    00:00 +15°C° 0.2 mm 2 mps 685 mmHg 66%
    01:00 +14°C° 0 mm 2 mps 684 mmHg 66%
    02:00 +14°C° 0 mm 2 mps 684 mmHg 66%
    03:00 +13°C° 0 mm 2 mps 684 mmHg 66%
    04:00 +13°C° 0 mm 2 mps 684 mmHg 67%
    05:00 +13°C° 0 mm 2 mps 683 mmHg 67%
    06:00 +13°C° 0 mm 2 mps 683 mmHg 68%
    07:00 +14°C° 0 mm 2 mps 683 mmHg 62%
    08:00 +16°C° 0 mm 2 mps 682 mmHg 57%
    09:00 +18°C° 0 mm 3 mps 682 mmHg 51%
    10:00 +18°C° 0.1 mm 3 mps 682 mmHg 48%
    11:00 +19°C° 0.1 mm 4 mps 681 mmHg 46%
    12:00 +20°C° 0.1 mm 4 mps 681 mmHg 43%
    13:00 +19°C° 0.7 mm 4 mps 681 mmHg 46%
    14:00 +19°C° 0.7 mm 4 mps 680 mmHg 49%
    15:00 +18°C° 0.7 mm 4 mps 680 mmHg 51%
    16:00 +18°C° 0.7 mm 3 mps 680 mmHg 53%
    17:00 +18°C° 0.7 mm 3 mps 680 mmHg 54%
    18:00 +17°C° 0.7 mm 2 mps 680 mmHg 56%
    19:00 +16°C° 0.7 mm 2 mps 680 mmHg 60%
    20:00 +15°C° 0.7 mm 1 mps 680 mmHg 65%
    21:00 +15°C° 0.7 mm 1 mps 680 mmHg 69%
    22:00 +14°C° 0.9 mm 2 mps 680 mmHg 71%
    23:00 +13°C° 0.9 mm 2 mps 680 mmHg 73%

    Tomorrow, 21 April, Saturday

    Time Temperature Precipitation Wind Pressure Humidity
    00:00 +12°C° 0.9 mm 3 mps 680 mmHg 75%
    01:00 +11°C° 0.7 mm 3 mps 680 mmHg 74%
    02:00 +11°C° 0.7 mm 3 mps 680 mmHg 74%
    03:00 +10°C° 0.7 mm 4 mps 680 mmHg 74%
    04:00 +10°C° 1.1 mm 4 mps 680 mmHg 75%
    05:00 +9°C° 1.1 mm 3 mps 680 mmHg 76%
    06:00 +9°C° 1.1 mm 3 mps 681 mmHg 77%
    07:00 +10°C° 0.7 mm 3 mps 681 mmHg 75%
    08:00 +10°C° 0.7 mm 3 mps 681 mmHg 73%
    09:00 +10°C° 0.7 mm 3 mps 682 mmHg 71%
    10:00 +12°C° 0.3 mm 2 mps 682 mmHg 68%
    11:00 +13°C° 0.3 mm 2 mps 682 mmHg 66%
    12:00 +13°C° 0.3 mm 2 mps 682 mmHg 63%
    13:00 +13°C° 0.3 mm 2 mps 682 mmHg 63%
    14:00 +14°C° 0.3 mm 2 mps 682 mmHg 62%
    15:00 +14°C° 0.3 mm 2 mps 682 mmHg 61%
    16:00 +13°C° 0.2 mm 2 mps 682 mmHg 63%
    17:00 +13°C° 0.2 mm 2 mps 682 mmHg 64%
    18:00 +13°C° 0.2 mm 2 mps 682 mmHg 65%
    19:00 +12°C° 0.2 mm 2 mps 683 mmHg 67%
    20:00 +12°C° 0.2 mm 2 mps 684 mmHg 69%
    21:00 +10°C° 0.2 mm 2 mps 684 mmHg 70%
    22:00 +10°C° 0.2 mm 2 mps 685 mmHg 71%
    23:00 +10°C° 0.2 mm 2 mps 685 mmHg 72%

    Day after tomorrow, 22 April, Sunday

    Time Temperature Precipitation Wind Pressure Humidity
    00:00 +10°C° 0.2 mm 1 mps 685 mmHg 73%
    01:00 +9°C° 0.1 mm 2 mps 685 mmHg 74%
    02:00 +9°C° 0.1 mm 2 mps 685 mmHg 74%
    03:00 +9°C° 0.1 mm 2 mps 685 mmHg 75%
    04:00 +8°C° 0.2 mm 2 mps 685 mmHg 75%
    05:00 +8°C° 0.2 mm 2 mps 685 mmHg 74%
    06:00 +8°C° 0.2 mm 2 mps 685 mmHg 74%
    07:00 +9°C° 0.2 mm 2 mps 685 mmHg 71%
    08:00 +10°C° 0.2 mm 2 mps 685 mmHg 68%
    09:00 +10°C° 0.2 mm 2 mps 686 mmHg 65%
    10:00 +12°C° 0.2 mm 2 mps 685 mmHg 64%
    11:00 +12°C° 0.2 mm 2 mps 685 mmHg 63%
    12:00 +13°C° 0.2 mm 1 mps 685 mmHg 62%
    13:00 +13°C° 0.1 mm 1 mps 685 mmHg 61%
    14:00 +14°C° 0.1 mm 1 mps 684 mmHg 61%
    15:00 +14°C° 0.1 mm 1 mps 684 mmHg 60%
    16:00 +14°C° 0.1 mm 1 mps 684 mmHg 61%
    17:00 +14°C° 0.1 mm 1 mps 684 mmHg 61%
    18:00 +13°C° 0.1 mm 1 mps 684 mmHg 61%
    19:00 +13°C° 0.1 mm 1 mps 684 mmHg 64%
    20:00 +12°C° 0.1 mm 2 mps 685 mmHg 67%
    21:00 +10°C° 0.1 mm 2 mps 685 mmHg 69%
    22:00 +9°C° 0 mm 2 mps 685 mmHg 70%
    23:00 +9°C° 0 mm 2 mps 685 mmHg 71%

    23 April, Monday

    Time Temperature Precipitation Wind Pressure Humidity
    00:00 +8°C° 0 mm 2 mps 685 mmHg 72%
    01:00 +8°C° 0 mm 2 mps 685 mmHg 73%
    02:00 +7°C° 0 mm 2 mps 685 mmHg 74%
    03:00 +7°C° 0 mm 2 mps 685 mmHg 74%
    04:00 +7°C° 0 mm 2 mps 685 mmHg 73%
    05:00 +7°C° 0 mm 2 mps 685 mmHg 72%
    06:00 +7°C° 0 mm 2 mps 685 mmHg 71%
    07:00 +9°C° 0 mm 3 mps 685 mmHg 65%
    08:00 +10°C° 0 mm 3 mps 685 mmHg 59%
    09:00 +12°C° 0 mm 3 mps 685 mmHg 53%
    10:00 +13°C° 0 mm 3 mps 685 mmHg 51%
    11:00 +15°C° 0 mm 2 mps 685 mmHg 49%
    12:00 +16°C° 0 mm 2 mps 685 mmHg 47%
    13:00 +16°C° 0 mm 2 mps 685 mmHg 45%
    14:00 +17°C° 0 mm 2 mps 685 mmHg 44%
    15:00 +18°C° 0 mm 2 mps 685 mmHg 43%
    16:00 +17°C° 0 mm 2 mps 685 mmHg 43%
    17:00 +17°C° 0 mm 2 mps 685 mmHg 43%
    18:00 +16°C° 0 mm 1 mps 686 mmHg 43%
    19:00 +15°C° 0 mm 2 mps 686 mmHg 47%
    20:00 +14°C° 0 mm 2 mps 687 mmHg 50%
    21:00 +12°C° 0 mm 2 mps 687 mmHg 54%
    22:00 +12°C° 0 mm 1 mps 688 mmHg 55%
    23:00 +11°C° 0 mm 1 mps 688 mmHg 57%

    24 April, Tuesday

    Time Temperature Precipitation Wind Pressure Humidity
    00:00 +11°C° 0 mm 1 mps 688 mmHg 59%
    01:00 +10°C° 0 mm 1 mps 688 mmHg 58%
    02:00 +10°C° 0 mm 1 mps 688 mmHg 58%
    03:00 +10°C° 0 mm 1 mps 688 mmHg 58%
    04:00 +10°C° 0 mm 1 mps 688 mmHg 57%
    05:00 +10°C° 0 mm 1 mps 689 mmHg 57%
    06:00 +10°C° 0 mm 1 mps 689 mmHg 57%
    07:00 +12°C° 0 mm 1 mps 689 mmHg 54%
    08:00 +13°C° 0 mm 2 mps 690 mmHg 51%
    09:00 +15°C° 0 mm 2 mps 690 mmHg 49%
    10:00 +16°C° 0 mm 2 mps 690 mmHg 46%
    11:00 +17°C° 0 mm 2 mps 690 mmHg 43%
    12:00 +18°C° 0 mm 2 mps 690 mmHg 40%
    13:00 +19°C° 0 mm 3 mps 690 mmHg 39%
    14:00 +19°C° 0 mm 3 mps 690 mmHg 38%
    15:00 +20°C° 0 mm 3 mps 690 mmHg 37%
    16:00 +19°C° 0 mm 3 mps 690 mmHg 39%
    17:00 +19°C° 0 mm 3 mps 689 mmHg 41%
    18:00 +18°C° 0 mm 3 mps 689 mmHg 43%
    19:00 +17°C° 0 mm 2 mps 690 mmHg 44%
    20:00 +15°C° 0 mm 2 mps 690 mmHg 46%
    21:00 +14°C° 0 mm 1 mps 690 mmHg 48%
    22:00 +14°C° 0 mm 1 mps 690 mmHg 48%
    23:00 +13°C° 0 mm 1 mps 690 mmHg 49%

    25 April, Wednesday

    Time Temperature Precipitation Wind Pressure Humidity
    00:00 +13°C° 0 mm 1 mps 690 mmHg 49%
    01:00 +13°C° 0 mm 1 mps 690 mmHg 51%
    02:00 +12°C° 0 mm 1 mps 690 mmHg 52%
    03:00 +12°C° 0 mm 1 mps 690 mmHg 53%
    04:00 +12°C° 0 mm 1 mps 690 mmHg 54%
    05:00 +12°C° 0 mm 1 mps 690 mmHg 55%
    06:00 +13°C° 0 mm 1 mps 690 mmHg 56%
    07:00 +14°C° 0 mm 1 mps 690 mmHg 53%
    08:00 +16°C° 0 mm 2 mps 690 mmHg 49%
    09:00 +18°C° 0 mm 2 mps 690 mmHg 45%
    10:00 +19°C° 0 mm 2 mps 690 mmHg 43%
    11:00 +20°C° 0 mm 2 mps 689 mmHg 41%
    12:00 +21°C° 0 mm 2 mps 689 mmHg 39%
    13:00 +21°C° 0 mm 2 mps 689 mmHg 37%
    14:00 +23°C° 0 mm 2 mps 688 mmHg 36%
    15:00 +22°C° 0 mm 3 mps 688 mmHg 35%
    16:00 +21°C° 0.2 mm 2 mps 688 mmHg 37%
    17:00 +21°C° 0.2 mm 2 mps 687 mmHg 39%
    18:00 +20°C° 0.2 mm 2 mps 687 mmHg 41%
    19:00 +19°C° 0.2 mm 2 mps 688 mmHg 44%
    20:00 +18°C° 0.2 mm 1 mps 688 mmHg 47%
    21:00 +16°C° 0.2 mm 1 mps 688 mmHg 51%
    22:00 +16°C° 0 mm 1 mps 688 mmHg 53%
    23:00 +15°C° 0 mm 1 mps 688 mmHg 55%
    Show more